Location: Casino Barbieri
(44.8000°N, 11.0500°E)
Time: 22:04:56
(UTC+00:00)

Daily predictions for brighter satellites

Satellite Brightness Start Highest point End
(mag) Time Altitude Azimuth Time Altitude Azimuth Time Altitude Azimuth
Cosmos 1464 Rocket 4.2 16:04:58 10° S 16:11:10 57° E 16:17:25 10° NNE
NOAA 6 4.2 16:08:07 10° SE 16:13:05 50° ENE 16:18:02 10° N
Cosmos 1461 4.1 16:09:18 10° WSW 16:13:16 38° NW 16:17:08 10° NNE
Cosmos 1271 Rocket 3.0 16:15:21 10° SSW 16:19:15 75° W 16:23:14 10° N
NOSS 2-1 (E) 3.5 16:16:55 10° SW 16:20:07 52° NW 16:23:23 10° NNE
Cosmos 1408 Rocket 3.7 16:15:59 10° N 16:20:12 48° ENE 16:24:25 10° SSE
CZ-4B R/B 3.0 16:17:38 10° SSE 16:21:52 84° W 16:25:53 10° NNW
Cosmos 1697 Rocket 3.7 16:19:37 10° N 16:24:14 25° NE 16:28:49 10° ESE
Cosmos 1743 Rocket 4.3 16:20:41 10° NNE 16:24:30 29° ENE 16:28:17 10° SE
Cosmos 1980 Rocket 3.7 16:22:17 10° N 16:25:43 16° NE 16:28:50 11° ENE
Cosmos 1763 Rocket 4.4 16:22:17 10° SSE 16:26:32 28° E 16:30:49 10° NE
deb Kosmos-1763 3.8 16:23:15 10° SSW 16:26:38 74° ESE 16:30:04 10° NNE
Lacrosse 5 2.9 16:22:57 10° WNW 16:27:55 52° SW 16:32:50 10° SSE
Nadezhda 4 Rocket 4.1 16:21:47 10° N 16:28:00 58° ENE 16:34:14 10° SSE
USA 267 3.7 16:22:11 10° NE 16:28:32 55° NNW 16:34:52 10° WSW
USA 305 3.7 16:25:33 10° W 16:29:34 41° NNW 16:33:22 11° NE
CZ-2C R/B 3.3 16:25:03 10° S 16:30:04 71° WSW 16:34:55 10° NNW
Cosmos 1656 3.8 16:25:26 10° NNW 16:30:47 49° ENE 16:36:11 10° SE
CZ-4B DEB 4.3 16:26:58 10° SSE 16:32:22 58° ENE 16:37:46 10° N
Cosmos 2082 Rocket 3.9 16:33:02 10° ESE 16:35:30 13° E 16:36:39 12° E
Cosmos 1340 Rocket 3.1 16:33:15 10° N 16:37:10 45° ENE 16:41:05 10° SSE
Cosmos 1092 Rocket 4.4 16:32:14 10° N 16:38:13 42° ENE 16:44:10 10° SE
USA 229 DEB 4.2 16:32:07 10° NNW 16:39:03 46° NE 16:46:26 10° ESE
USA 229 4.2 16:32:12 10° NNW 16:39:08 45° NE 16:46:30 10° ESE
COSMOS 2406 4.3 16:35:50 10° SSE 16:40:24 25° ESE 16:43:56 14° ENE
AQUARIUS 4.1 16:36:45 10° SSE 16:41:13 76° ENE 16:45:43 10° N
Cosmos 990 Rocket 4.2 16:37:15 10° N 16:42:16 45° ENE 16:47:12 10° SE
Lacrosse 5 rocket 3.4 16:41:17 10° NNW 16:43:20 14° N 16:45:17 10° NNE
SKYMED 2 4.5 16:40:37 10° NE 16:44:22 28° E 16:48:05 10° SSE
ATLAS 2AS CENTAUR R/B 4.4 16:39:03 10° W 16:45:24 26° NNW 16:51:33 10° NNE
USA 276 2.8 16:43:23 10° WNW 16:46:20 37° NNE 16:47:51 22° ENE
ATLAS CENTAUR R/B 3.5 16:36:07 10° SSW 16:47:17 57° SE 16:50:57 18° ENE
Cosmos 1933 4.0 16:44:07 10° SSE 16:47:48 34° E 16:51:18 11° NNE
PAYLOAD B 4.3 16:42:28 10° SSE 16:47:58 62° ENE 16:53:31 10° N
SJ 16-02 2.5 16:46:47 10° NNW 16:51:00 47° WSW 16:55:11 10° S
Cosmos 2034 Rocket 3.9 16:48:26 10° S 16:54:36 85° E 17:00:47 10° N
Cosmos 1500 Rocket 3.5 16:50:37 10° N 16:55:04 66° E 16:59:27 10° SSE
TIMED 4.5 16:52:03 10° SSW 16:56:25 89° WNW 17:00:49 10° NNE
CORIOLIS 4.4 16:53:30 10° S 16:58:53 76° WSW 17:04:19 10° NNW
CZ-2D R/B 3.1 16:56:37 10° SSE 17:00:27 76° ENE 17:04:17 10° N
USA 306 4.1 16:57:46 10° W 17:01:36 31° NNW 17:04:00 18° NNE
USA 234 4.1 16:55:39 10° SSE 17:02:00 53° SW 17:08:22 10° WNW
NOSS 3-1 (A) 4.1 16:55:17 10° NNW 17:02:40 63° NE 17:11:19 10° SE
Meteor 1-20 Rocket 4.2 16:59:27 10° N 17:05:17 73° ENE 17:11:08 10° SSE
NOSS 3-1 (C) 4.1 16:58:17 10° NW 17:05:52 88° SW 17:14:42 10° SE
Cosmos 1805 Rocket 3.6 17:01:40 10° N 17:05:54 50° ENE 17:10:06 10° SSE
Cosmos 1842 Rocket 4.3 17:02:05 10° SSW 17:06:27 56° WNW 17:10:52 10° N
Cosmos 1833 Rocket 2.8 17:02:33 10° S 17:07:57 52° ESE 17:11:51 19° NE
Cosmos 2360 4.4 17:05:30 10° NNW 17:11:04 49° ENE 17:16:35 10° SE
PSLV R/B 4.1 17:08:45 10° S 17:12:23 64° W 17:16:04 10° NNW
CZ-4B R/B 3.1 17:07:15 10° SSE 17:12:40 69° ENE 17:18:02 10° N
SMAP 4.5 17:12:26 10° SSW 17:16:49 41° W 17:21:14 10° NNW
ARGOS 3.1 17:11:39 10° SSE 17:16:58 59° ENE 17:22:18 10° N
Sich 1 3.1 17:12:55 10° N 17:17:07 51° ENE 17:21:17 10° SSE
USA 307 4.2 17:14:21 10° WNW 17:18:09 29° NNW 17:19:51 22° NNE
ERBS 3.8 17:15:38 10° W 17:18:24 26° NNW 17:19:27 21° N
H-2A R/B 2.1 17:13:23 10° SSE 17:18:39 84° WSW 17:23:48 10° NNW
Cosmos 1634 Rocket 4.0 17:13:55 10° S 17:20:08 64° E 17:26:24 10° NNE
Cosmos 1898 Rocket 3.4 17:15:45 10° NNW 17:21:02 71° ENE 17:26:14 10° SSE
MOS 1-B Rocket 3.9 17:15:57 10° NNE 17:21:44 83° ESE 17:28:11 10° SSW
COSMOS 2455 3.4 17:18:52 10° S 17:24:19 37° ESE 17:25:52 32° E
Cosmos 2221 4.4 17:22:31 10° SW 17:26:15 29° WNW 17:30:02 10° NNW
Cosmos 468 Rocket 3.9 17:21:12 10° SSW 17:26:20 89° WNW 17:30:21 17° NNE
ATLAS CENTAUR R/B 3.9 17:23:49 10° WNW 17:26:26 16° NNW 17:29:10 10° N
CZ-4 R/B 4.3 17:24:31 10° SSE 17:28:37 69° ENE 17:32:44 10° N
Landsat 5 3.4 17:27:18 38° NE 17:28:41 58° E 17:32:41 10° S
Cosmos 44 3.8 17:24:51 10° NW 17:29:32 57° WSW 17:33:55 10° SSE
SL-19 R/B 4.5 17:24:53 10° NNE 17:30:54 85° ESE 17:37:24 10° SSW
COSMO-SKYMED 1 2.5 17:29:13 17° NNE 17:32:35 89° E 17:36:56 10° SSW
SL-08 RB Rocket 3.7 17:30:24 10° SSE 17:34:58 59° ENE 17:39:32 10° N
Cosmos 540 Rocket 3.3 17:29:58 10° S 17:35:00 66° ESE 17:37:03 36° NE
deb Chang Zheng 4 3.6 17:31:06 10° S 17:35:23 76° WSW 17:39:44 10° NNW
Cosmos 2026 Rocket 3.9 17:29:17 10° N 17:35:30 89° E 17:41:35 10° S
CZ-2C R/B 2.5 17:33:35 10° NNE 17:38:51 87° WNW 17:44:01 10° SSW
SJ-11-01 4.2 17:34:08 10° SSE 17:38:53 88° WSW 17:43:40 10° NNW
Okean O Rocket 1.6 17:35:12 10° SSE 17:39:38 85° WSW 17:44:08 10° NNW
USA 308 4.3 17:36:58 10° WNW 17:40:34 26° N 17:41:12 25° N
Cosmos 1500 4.0 17:37:41 10° N 17:44:46 13° S 17:45:11 10° S
ISS -1.9 17:43:00 10° NW 17:44:55 23° NNW 17:44:55 23° NNW
Meteor 2-21 4.4 17:40:53 10° N 17:47:01 83° W 17:53:04 10° S
YAOGAN 1 4.3 17:50:23 20° N 17:50:23 20° N 17:51:48 10° N
CZ-4C R/B 3.3 17:41:28 10° NNW 17:48:10 44° NE 17:49:48 39° ENE
Meteor 1-5 Rocket 4.2 17:50:15 10° N 17:56:14 67° ENE 18:02:09 10° SSE
Cosmos 2084 3.6 17:54:57 10° NW 17:59:15 71° SW 17:59:42 65° S
GEOS 3 Rocket 3.7 17:56:54 26° SSE 17:59:55 74° SW 18:05:09 10° NW
NOAA 15 4.4 17:55:00 10° SSE 18:00:17 78° ENE 18:05:35 10° NNW
Cosmos 2369 3.6 17:54:41 10° NNW 18:00:28 82° ENE 18:02:24 44° SSE
Cosmos 2322 Rocket 4.3 17:56:44 10° N 17:57:35 13° N 17:57:35 13° N
Cosmos 1782 3.6 17:57:39 10° SSW 18:01:33 51° WNW 18:02:36 39° NNW
DMSP B5D2-2 4.2 18:06:37 56° SSE 18:06:37 56° SSE 18:10:52 10° S
Cosmos 1697 Rocket 3.2 18:03:04 10° NNW 18:08:35 59° WSW 18:14:04 10° S
Cosmos 1937 Rocket 3.9 18:03:34 10° NNW 18:08:50 63° WSW 18:14:04 10° S
Cosmos 841 Rocket 3.4 18:04:25 10° SSW 18:09:36 81° WNW 18:10:09 70° N
NOSS 2-2 (C) 4.2 18:05:25 10° NW 18:10:38 72° NE 18:10:59 70° ENE
Cosmos 1980 Rocket 2.0 18:05:01 10° NNW 18:10:40 78° NE 18:10:40 78° NE
USA 267 4.3 18:08:54 27° NNE 18:10:46 32° N 18:16:23 10° WNW
SL-16 R/B 4.1 18:10:13 10° N 18:11:40 16° N 18:11:40 16° N
Cosmos 2082 Rocket 2.1 18:13:00 10° SSW 18:18:33 85° S 18:18:33 85° S
Cosmos 1151 Rocket 4.4 18:18:23 10° SSW 18:20:53 33° SW 18:20:53 33° SW
Lacrosse 5 rocket 4.0 18:20:35 10° NNW 18:20:53 11° NNW 18:20:53 11° NNW
COSMOS 2406 3.8 18:18:42 10° SW 18:24:20 53° WNW 18:26:02 40° N
Meteor 2-6 Rocket 4.4 18:20:18 10° S 18:25:12 64° S 18:25:12 64° S
Cosmos 2278 4.3 18:20:48 10° NNW 18:24:47 46° N 18:24:47 46° N
Cosmos 1833 Rocket 4.4 18:47:25 10° WSW 18:52:11 28° NW 18:53:35 25° NNW
COSMOS 2455 4.0 19:04:28 10° WSW 19:09:04 39° WNW 19:09:04 39° WNW
CZ-4C R/B 3.8 19:29:51 10° NW 19:35:02 46° WNW 19:35:02 46° WNW
